,,,PA_Meas_PMT16A,,PR_Meas_QMR101_102,,RH_Meas_QMH101,,SR_Meas_QMS101,,TA_Meas_QMH101,,GenWind,,GenWind,
date,time,status,PA,status,PR,status,RH,status,SR,status,TA,status,DirAvg,status,SpdAvg,
2010-07-15, 00:00:04,VALID,999.452,VALID,0,VALID,92.3031,VALID,0,VALID,22.8623,VALID,54,VALID,0.688281,
2010-07-15, 00:01:04,VALID,999.448,VALID,0,VALID,92.3871,VALID,0,VALID,22.8427,VALID,59,VALID,0.616797,
2010-07-15, 00:02:04,VALID,999.458,VALID,0,VALID,92.3794,VALID,0,VALID,22.8835,VALID,59,VALID,0.657031,
2010-07-15, 00:03:04,VALID,999.418,VALID,0,VALID,92.4405,VALID,0,VALID,22.8623,VALID,89,VALID,0.689453,
2010-07-15, 00:04:04,VALID,999.384,VALID,0,VALID,92.5626,VALID,0,VALID,22.8818,VALID,89,VALID,0.567578,
2010-07-15, 00:05:04,VALID,999.36,VALID,0,VALID,92.6083,VALID,0,VALID,22.9013,VALID,89,VALID,0.627344,
2010-07-15, 00:06:04,VALID,999.336,VALID,0,VALID,92.5397,VALID,0,VALID,22.8818,VALID,125,VALID,0.857422,
2010-07-15, 00:07:04,VALID,999.329,VALID,0,VALID,92.5244,VALID,0,VALID,22.8818,VALID,125,VALID,0.882813,
2010-07-15, 00:08:04,VALID,999.313,VALID,0,VALID,92.7762,VALID,0,VALID,22.9598,VALID,125,VALID,0.785547,
2010-07-15, 00:09:04,VALID,999.312,VALID,0,VALID,92.7838,VALID,0,VALID,22.9793,VALID,125,VALID,0.795313,
2010-07-15, 00:10:04,VALID,999.327,VALID,0,VALID,92.7685,VALID,0,VALID,22.9793,VALID,125,VALID,0.85625,
2010-07-15, 00:11:04,VALID,999.314,VALID,0,VALID,92.7533,VALID,0,VALID,23.0183,VALID,125,VALID,0.794141,
2010-07-15, 00:12:04,VALID,999.295,VALID,0,VALID,92.6465,VALID,0,VALID,23.0378,VALID,125,VALID,0.71875,
2010-07-15, 00:13:04,VALID,999.306,VALID,0,VALID,92.6007,VALID,0,VALID,23.0769,VALID,125,VALID,0.696484,
2010-07-15, 00:14:04,VALID,999.297,VALID,0,VALID,92.5702,VALID,0,VALID,23.0964,VALID,125,VALID,0.629687,
2010-07-15, 00:15:04,VALID,999.251,VALID,0,VALID,92.5091,VALID,0,VALID,23.1354,VALID,125,VALID,0.413281,
2010-07-15, 00:16:04,VALID,999.248,VALID,0,VALID,92.3566,VALID,0,VALID,23.1549,VALID,125,VALID,0.286328,
2010-07-15, 00:17:04,VALID,999.224,VALID,0,VALID,92.1429,VALID,0,VALID,23.1744,VALID,125,VALID,0.321875,
2010-07-15, 00:18:04,VALID,999.219,VALID,0,VALID,91.9674,VALID,0,VALID,23.1957,VALID,125,VALID,0.368359,
2010-07-15, 00:19:04,VALID,999.217,VALID,0,VALID,91.7996,VALID,0,VALID,23.1957,VALID,125,VALID,0.234375,
2010-07-15, 00:20:04,VALID,999.19,VALID,0,VALID,91.6165,VALID,0,VALID,23.1549,VALID,125,VALID,0.591406,
2010-07-15, 00:21:04,VALID,999.161,VALID,0,VALID,91.5173,VALID,0,VALID,23.1549,VALID,125,VALID,0.497266,
2010-07-15, 00:22:04,VALID,999.178,VALID,0,VALID,91.5173,VALID,0,VALID,23.1354,VALID,125,VALID,0.801562,
2010-07-15, 00:23:04,VALID,999.137,VALID,0,VALID,91.5554,VALID,0,VALID,23.1549,VALID,125,VALID,0.741797,
2010-07-15, 00:24:04,VALID,999.182,VALID,0,VALID,91.5249,VALID,0,VALID,23.1744,VALID,125,VALID,0.725781,
2010-07-15, 00:25:04,VALID,999.137,VALID,0,VALID,91.4791,VALID,0,VALID,23.1744,VALID,125,VALID,0.666797,
2010-07-15, 00:26:04,VALID,999.148,VALID,0,VALID,91.4334,VALID,0,VALID,23.1744,VALID,125,VALID,0.539063,
2010-07-15, 00:27:04,VALID,999.137,VALID,0,VALID,91.4028,VALID,0,VALID,23.1744,VALID,125,VALID,0.519141,
2010-07-15, 00:28:04,VALID,999.132,VALID,0,VALID,91.4563,VALID,0,VALID,23.1744,VALID,125,VALID,0.492578,
2010-07-15, 00:29:04,VALID,999.125,VALID,0,VALID,91.3647,VALID,0,VALID,23.1549,VALID,125,VALID,0.412891,
2010-07-15, 00:30:04,VALID,999.143,VALID,0,VALID,91.38,VALID,0,VALID,23.1549,VALID,125,VALID,0.380469,
2010-07-15, 00:31:04,VALID,999.102,VALID,0,VALID,91.2655,VALID,0,VALID,23.1159,VALID,125,VALID,0.325391,
2010-07-15, 00:32:04,VALID,999.086,VALID,0,VALID,91.2045,VALID,0,VALID,23.0964,VALID,125,VALID,0.303906,
2010-07-15, 00:33:04,VALID,999.07,VALID,0,VALID,91.2655,VALID,0,VALID,23.0981,VALID,125,VALID,0.304688,
2010-07-15, 00:34:04,VALID,999.026,VALID,0,VALID,91.4105,VALID,0,VALID,23.0769,VALID,125,VALID,0.317187,
2010-07-15, 00:35:04,VALID,999.026,VALID,0,VALID,91.4639,VALID,0,VALID,23.0573,VALID,125,VALID,0.458203,
2010-07-15, 00:36:04,VALID,999.006,VALID,0,VALID,91.586,VALID,0,VALID,23.0573,VALID,125,VALID,0.297266,
2010-07-15, 00:37:04,VALID,999.014,VALID,0,VALID,91.6775,VALID,0,VALID,23.0573,VALID,125,VALID,0,
2010-07-15, 00:38:04,VALID,998.977,VALID,0,VALID,91.708,VALID,0,VALID,23.0573,VALID,125,VALID,0,
2010-07-15, 00:39:04,VALID,998.972,VALID,0,VALID,91.7233,VALID,0,VALID,23.0769,VALID,125,VALID,0,
2010-07-15, 00:40:04,VALID,998.988,VALID,0,VALID,91.7614,VALID,0,VALID,23.0769,VALID,125,VALID,0,
2010-07-15, 00:41:04,VALID,998.964,VALID,0,VALID,91.7691,VALID,0,VALID,23.0769,VALID,125,VALID,0,
2010-07-15, 00:42:04,VALID,998.948,VALID,0,VALID,91.7538,VALID,0,VALID,23.0769,VALID,125,VALID,0,
2010-07-15, 00:43:04,VALID,998.919,VALID,0,VALID,91.708,VALID,0,VALID,23.0573,VALID,125,VALID,0,
2010-07-15, 00:44:04,VALID,998.943,VALID,0,VALID,91.708,VALID,0,VALID,23.0378,VALID,125,VALID,0,
2010-07-15, 00:45:04,VALID,998.952,VALID,0,VALID,91.7996,VALID,0,VALID,23.0183,VALID,125,VALID,0,
2010-07-15, 00:46:04,VALID,999.005,VALID,0,VALID,91.8835,VALID,0,VALID,22.9988,VALID,125,VALID,0,
2010-07-15, 00:47:04,VALID,999.03,VALID,0,VALID,91.853,VALID,0,VALID,22.9793,VALID,125,VALID,0,
2010-07-15, 00:48:04,VALID,999.056,VALID,0,VALID,91.792,VALID,0,VALID,22.9403,VALID,125,VALID,0,
2010-07-15, 00:49:04,VALID,999.048,VALID,0,VALID,91.8377,VALID,0,VALID,22.9208,VALID,125,VALID,0,
2010-07-15, 00:50:04,VALID,999.031,VALID,0,VALID,91.9903,VALID,0,VALID,22.9208,VALID,125,VALID,0,
2010-07-15, 00:51:04,VALID,999.04,VALID,0,VALID,92.0056,VALID,0,VALID,22.9013,VALID,125,VALID,0,
2010-07-15, 00:52:04,VALID,999.06,VALID,0,VALID,91.792,VALID,0,VALID,22.8427,VALID,125,VALID,0,
2010-07-15, 00:53:04,VALID,999.063,VALID,0,VALID,91.8683,VALID,0,VALID,22.8037,VALID,125,VALID,0,
2010-07-15, 00:54:04,VALID,999.082,VALID,0,VALID,91.7996,VALID,0,VALID,22.7842,VALID,125,VALID,0,
2010-07-15, 00:55:04,VALID,999.128,VALID,0,VALID,91.647,VALID,0,VALID,22.7257,VALID,125,VALID,0,
2010-07-15, 00:56:04,VALID,999.112,VALID,0,VALID,91.8683,VALID,0,VALID,22.6867,VALID,125,VALID,0,
2010-07-15, 00:57:04,VALID,999.143,VALID,0,VALID,91.9217,VALID,0,VALID,22.6867,VALID,125,VALID,0,
2010-07-15, 00:58:04,VALID,999.098,VALID,0,VALID,91.7538,VALID,0,VALID,22.7062,VALID,125,VALID,0.684375,
2010-07-15, 00:59:04,VALID,999.123,VALID,0,VALID,91.9598,VALID,0,VALID,22.7452,VALID,125,VALID,0.675781,
2010-07-15, 01:00:04,VALID,999.144,VALID,0,VALID,91.8377,VALID,0,VALID,22.7842,VALID,104,VALID,0.79375,
2010-07-15, 01:01:04,VALID,999.145,VALID,0,VALID,91.7614,VALID,0,VALID,22.8232,VALID,95,VALID,0.846484,
2010-07-15, 01:02:04,VALID,999.171,VALID,0,VALID,91.4868,VALID,0,VALID,22.8427,VALID,91,VALID,0.911719,
2010-07-15, 01:03:04,VALID,999.148,VALID,0,VALID,91.3113,VALID,0,VALID,22.8427,VALID,79,VALID,0.912891,
2010-07-15, 01:04:04,VALID,999.141,VALID,0,VALID,91.1663,VALID,0,VALID,22.8818,VALID,76,VALID,0.925,
2010-07-15, 01:05:04,VALID,999.154,VALID,0,VALID,91.09,VALID,0,VALID,22.8818,VALID,69,VALID,1.00273,
2010-07-15, 01:06:04,VALID,999.151,VALID,0,VALID,90.823,VALID,0,VALID,22.9013,VALID,66,VALID,1.01953,
2010-07-15, 01:07:04,VALID,999.167,VALID,0,VALID,90.8764,VALID,0,VALID,22.9013,VALID,66,VALID,1.02539,
2010-07-15, 01:08:04,VALID,999.148,VALID,0,VALID,90.823,VALID,0,VALID,22.9013,VALID,66,VALID,0.883203,
2010-07-15, 01:09:04,VALID,999.159,VALID,0,VALID,90.8917,VALID,0,VALID,22.9208,VALID,66,VALID,0.85625,
2010-07-15, 01:10:04,VALID,999.163,VALID,0,VALID,90.7696,VALID,0,VALID,22.8818,VALID,66,VALID,0.691406,
2010-07-15, 01:11:04,VALID,999.161,VALID,0,VALID,90.6323,VALID,0,VALID,22.8623,VALID,66,VALID,0.620703,
2010-07-15, 01:12:04,VALID,999.168,VALID,0,VALID,90.6628,VALID,0,VALID,22.8232,VALID,66,VALID,0.54375,
2010-07-15, 01:13:04,VALID,999.15,VALID,0,VALID,90.8306,VALID,0,VALID,22.8037,VALID,66,VALID,0.572266,
2010-07-15, 01:14:04,VALID,999.133,VALID,0,VALID,91.1358,VALID,0,VALID,22.7842,VALID,66,VALID,0.481641,
2010-07-15, 01:15:04,VALID,999.098,VALID,0,VALID,91.296,VALID,0,VALID,22.7647,VALID,66,VALID,0.330469,
2010-07-15, 01:16:04,VALID,999.097,VALID,0,VALID,91.3723,VALID,0,VALID,22.7452,VALID,66,VALID,0.197656,
2010-07-15, 01:17:04,VALID,999.079,VALID,0,VALID,91.4791,VALID,0,VALID,22.7257,VALID,66,VALID,0.175781,
2010-07-15, 01:18:04,VALID,999.03,VALID,0,VALID,91.6394,VALID,0,VALID,22.7062,VALID,66,VALID,0.191797,
2010-07-15, 01:19:04,VALID,998.982,VALID,0,VALID,91.853,VALID,0,VALID,22.7079,VALID,66,VALID,0.100391,
2010-07-15, 01:20:04,VALID,998.955,VALID,0,VALID,92.0361,VALID,0,VALID,22.6867,VALID,66,VALID,0.19375,
2010-07-15, 01:21:04,VALID,998.959,VALID,0,VALID,92.0743,VALID,0,VALID,22.6867,VALID,66,VALID,0.125,
2010-07-15, 01:22:04,VALID,998.945,VALID,0,VALID,92.1582,VALID,0,VALID,22.6672,VALID,66,VALID,0.223828,
2010-07-15, 01:23:04,VALID,998.913,VALID,0,VALID,92.0209,VALID,0,VALID,22.6477,VALID,66,VALID,0.151953,
2010-07-15, 01:24:04,VALID,998.879,VALID,0,VALID,92.0743,VALID,0,VALID,22.6087,VALID,66,VALID,0,
2010-07-15, 01:25:04,VALID,998.834,VALID,0,VALID,92.4481,VALID,0,VALID,22.6477,VALID,66,VALID,0.000390625,
2010-07-15, 01:26:04,VALID,998.82,VALID,0,VALID,92.532,VALID,0,VALID,22.6672,VALID,66,VALID,0.432031,
2010-07-15, 01:27:04,VALID,998.81,VALID,0,VALID,92.4328,VALID,0,VALID,22.6672,VALID,66,VALID,0.422656,
2010-07-15, 01:28:04,VALID,998.793,VALID,0,VALID,92.1963,VALID,0,VALID,22.6282,VALID,66,VALID,0.31875,
2010-07-15, 01:29:04,VALID,998.786,VALID,0,VALID,91.998,VALID,0,VALID,22.6104,VALID,66,VALID,0,
2010-07-15, 01:30:04,VALID,998.761,VALID,0,VALID,92.0743,VALID,0,VALID,22.5696,VALID,66,VALID,0,
2010-07-15, 01:31:04,VALID,998.766,VALID,0,VALID,92.2345,VALID,0,VALID,22.5696,VALID,66,VALID,0,
2010-07-15, 01:32:04,VALID,998.75,VALID,0,VALID,92.326,VALID,0,VALID,22.5696,VALID,66,VALID,0,
2010-07-15, 01:33:04,VALID,998.735,VALID,0,VALID,92.3947,VALID,0,VALID,22.5501,VALID,66,VALID,0,
2010-07-15, 01:34:04,VALID,998.749,VALID,0,VALID,92.3718,VALID,0,VALID,22.5501,VALID,66,VALID,0.366797,
2010-07-15, 01:35:04,VALID,998.736,VALID,0,VALID,92.3947,VALID,0,VALID,22.5306,VALID,66,VALID,0.396875,
2010-07-15, 01:36:04,VALID,998.742,VALID,0,VALID,92.3489,VALID,0,VALID,22.4916,VALID,66,VALID,0.327734,
2010-07-15, 01:37:04,VALID,998.749,VALID,0,VALID,92.3871,VALID,0,VALID,22.4916,VALID,66,VALID,0.314844,
2010-07-15, 01:38:04,VALID,998.76,VALID,0,VALID,92.4176,VALID,0,VALID,22.4916,VALID,66,VALID,0.264062,
2010-07-15, 01:39:04,VALID,998.786,VALID,0,VALID,92.4634,VALID,0,VALID,22.4721,VALID,66,VALID,0.231641,
2010-07-15, 01:40:04,VALID,998.783,VALID,0,VALID,92.5091,VALID,0,VALID,22.4543,VALID,66,VALID,0.139453,
2010-07-15, 01:41:04,VALID,998.828,VALID,0,VALID,92.5931,VALID,0,VALID,22.4526,VALID,66,VALID,0.313281,
2010-07-15, 01:42:04,VALID,998.801,VALID,0,VALID,92.616,VALID,0,VALID,22.4526,VALID,66,VALID,0.387891,
2010-07-15, 01:43:04,VALID,998.789,VALID,0,VALID,92.616,VALID,0,VALID,22.4136,VALID,66,VALID,0.411328,
2010-07-15, 01:44:04,VALID,998.777,VALID,0,VALID,92.6617,VALID,0,VALID,22.4348,VALID,66,VALID,0.458594,
2010-07-15, 01:45:04,VALID,998.802,VALID,0,VALID,92.7609,VALID,0,VALID,22.4136,VALID,66,VALID,0.557031,
2010-07-15, 01:46:04,VALID,998.788,VALID,0,VALID,92.8983,VALID,0,VALID,22.4721,VALID,66,VALID,0.545313,
2010-07-15, 01:47:04,VALID,998.76,VALID,0,VALID,92.9364,VALID,0,VALID,22.5111,VALID,66,VALID,0.678125,
2010-07-15, 01:48:04,VALID,998.766,VALID,0,VALID,92.8906,VALID,0,VALID,22.5306,VALID,66,VALID,0.616797,
2010-07-15, 01:49:04,VALID,998.74,VALID,0,VALID,92.7685,VALID,0,VALID,22.5306,VALID,66,VALID,0.852734,
2010-07-15, 01:50:04,VALID,998.721,VALID,0,VALID,92.5549,VALID,0,VALID,22.5501,VALID,66,VALID,0.927734,
2010-07-15, 01:51:04,VALID,998.715,VALID,0,VALID,92.4023,VALID,0,VALID,22.5501,VALID,66,VALID,0.992188,
2010-07-15, 01:52:04,VALID,998.702,VALID,0,VALID,92.3947,VALID,0,VALID,22.5501,VALID,66,VALID,0.934766,
2010-07-15, 01:53:04,VALID,998.688,VALID,0,VALID,92.3718,VALID,0,VALID,22.5306,VALID,66,VALID,0.766016,
2010-07-15, 01:54:04,VALID,998.699,VALID,0,VALID,92.3794,VALID,0,VALID,22.5111,VALID,66,VALID,0.651172,
2010-07-15, 01:55:04,VALID,998.711,VALID,0,VALID,92.4405,VALID,0,VALID,22.5111,VALID,66,VALID,0.349609,
2010-07-15, 01:56:04,VALID,998.69,VALID,0,VALID,92.3871,VALID,0,VALID,22.4721,VALID,66,VALID,0.214844,
2010-07-15, 01:57:04,VALID,998.694,VALID,0,VALID,92.4176,VALID,0,VALID,22.4526,VALID,66,VALID,0,
2010-07-15, 01:58:04,VALID,998.701,VALID,0,VALID,92.5626,VALID,0,VALID,22.4526,VALID,66,VALID,0,
2010-07-15, 01:59:04,VALID,998.683,VALID,0,VALID,92.6083,VALID,0,VALID,22.4331,VALID,66,VALID,0,
2010-07-15, 02:00:04,VALID,998.675,VALID,0,VALID,92.5778,VALID,0,VALID,22.4136,VALID,66,VALID,0,
2010-07-15, 02:01:04,VALID,998.698,VALID,0,VALID,92.6083,VALID,0,VALID,22.3746,VALID,66,VALID,0,
2010-07-15, 02:02:04,VALID,998.7,VALID,0,VALID,92.738,VALID,0,VALID,22.3958,VALID,66,VALID,0,
2010-07-15, 02:03:04,VALID,998.662,VALID,0,VALID,92.8067,VALID,0,VALID,22.3746,VALID,66,VALID,0.405469,
2010-07-15, 02:04:04,VALID,998.658,VALID,0,VALID,92.8754,VALID,0,VALID,22.3551,VALID,66,VALID,0.408594,
2010-07-15, 02:05:04,VALID,998.676,VALID,0,VALID,92.9593,VALID,0,VALID,22.3746,VALID,66,VALID,0.378906,
2010-07-15, 02:06:04,VALID,998.651,VALID,0,VALID,92.9822,VALID,0,VALID,22.3551,VALID,66,VALID,0.421484,
2010-07-15, 02:07:04,VALID,998.65,VALID,0,VALID,92.9593,VALID,0,VALID,22.3551,VALID,66,VALID,0.304688,
2010-07-15, 02:08:04,VALID,998.676,VALID,0,VALID,92.9211,VALID,0,VALID,22.3356,VALID,66,VALID,0.318359,
2010-07-15, 02:09:04,VALID,998.659,VALID,0,VALID,92.8601,VALID,0,VALID,22.2966,VALID,66,VALID,0.275391,
2010-07-15, 02:10:04,VALID,998.637,VALID,0,VALID,92.7914,VALID,0,VALID,22.2771,VALID,66,VALID,0,
2010-07-15, 02:11:04,VALID,998.628,VALID,0,VALID,92.7991,VALID,0,VALID,22.2771,VALID,66,VALID,0,
2010-07-15, 02:12:04,VALID,998.615,VALID,0,VALID,92.8906,VALID,0,VALID,22.2771,VALID,66,VALID,0,
2010-07-15, 02:13:04,VALID,998.597,VALID,0,VALID,93.028,VALID,0,VALID,22.3161,VALID,66,VALID,0,
2010-07-15, 02:14:04,VALID,998.576,VALID,0,VALID,93.1424,VALID,0,VALID,22.3551,VALID,66,VALID,0,
2010-07-15, 02:15:04,VALID,998.555,VALID,0,VALID,93.2492,VALID,0,VALID,22.4136,VALID,66,VALID,0,
2010-07-15, 02:16:04,VALID,998.588,VALID,0,VALID,93.1958,VALID,0,VALID,22.4136,VALID,66,VALID,0,
2010-07-15, 02:17:04,VALID,998.564,VALID,0,VALID,93.1119,VALID,0,VALID,22.3941,VALID,66,VALID,0,
2010-07-15, 02:18:04,VALID,998.562,VALID,0,VALID,93.0051,VALID,0,VALID,22.3746,VALID,66,VALID,0.564453,
2010-07-15, 02:19:04,VALID,998.55,VALID,0,VALID,93.0051,VALID,0,VALID,22.3941,VALID,47,VALID,0.857031,
2010-07-15, 02:20:04,VALID,998.542,VALID,0,VALID,92.9898,VALID,0,VALID,22.3941,VALID,41,VALID,0.986719,
2010-07-15, 02:21:04,VALID,998.536,VALID,0,VALID,92.9669,VALID,0,VALID,22.4136,VALID,41,VALID,0.970703,
2010-07-15, 02:22:04,VALID,998.504,VALID,0,VALID,92.8067,VALID,0,VALID,22.3941,VALID,41,VALID,0.985156,
2010-07-15, 02:23:04,VALID,998.478,VALID,0,VALID,92.6007,VALID,0,VALID,22.3746,VALID,41,VALID,0.950781,
2010-07-15, 02:24:04,VALID,998.486,VALID,0,VALID,92.4405,VALID,0,VALID,22.3551,VALID,41,VALID,0.871484,
2010-07-15, 02:25:04,VALID,998.495,VALID,0,VALID,92.4023,VALID,0,VALID,22.3551,VALID,41,VALID,0.732031,
2010-07-15, 02:26:04,VALID,998.503,VALID,0,VALID,92.3871,VALID,0,VALID,22.3144,VALID,41,VALID,0.467578,
2010-07-15, 02:27:04,VALID,998.524,VALID,0,VALID,92.5473,VALID,0,VALID,22.3551,VALID,41,VALID,0.379687,
2010-07-15, 02:28:04,VALID,998.535,VALID,0,VALID,92.6465,VALID,0,VALID,22.3551,VALID,41,VALID,0.367969,
2010-07-15, 02:29:04,VALID,998.506,VALID,0,VALID,92.6312,VALID,0,VALID,22.3746,VALID,41,VALID,0.278516,
2010-07-15, 02:30:04,VALID,998.491,VALID,0,VALID,92.5702,VALID,0,VALID,22.3746,VALID,41,VALID,0.5125,
2010-07-15, 02:31:04,VALID,998.507,VALID,0,VALID,92.6694,VALID,0,VALID,22.4136,VALID,28,VALID,0.499609,
2010-07-15, 02:32:04,VALID,998.485,VALID,0,VALID,92.6465,VALID,0.112286,VALID,22.4526,VALID,325,VALID,0.674609,
2010-07-15, 02:33:04,VALID,998.415,VALID,0,VALID,92.5244,VALID,0,VALID,22.4526,VALID,324,VALID,0.775781,
2010-07-15, 02:34:04,VALID,998.45,VALID,0,VALID,92.4634,VALID,0,VALID,22.4526,VALID,315,VALID,0.767578,
2010-07-15, 02:35:04,VALID,998.409,VALID,0,VALID,92.3642,VALID,0,VALID,22.4526,VALID,314,VALID,0.854688,
2010-07-15, 02:36:04,VALID,998.437,VALID,0,VALID,92.4176,VALID,0,VALID,22.4526,VALID,308,VALID,0.690234,
2010-07-15, 02:37:04,VALID,998.432,VALID,0,VALID,92.4405,VALID,0,VALID,22.4526,VALID,308,VALID,0.760938,
2010-07-15, 02:38:04,VALID,998.434,VALID,0,VALID,92.3871,VALID,0,VALID,22.4526,VALID,308,VALID,0.497266,
2010-07-15, 02:39:04,VALID,998.423,VALID,0,VALID,92.3184,VALID,0,VALID,22.4331,VALID,308,VALID,0.0339844,
2010-07-15, 02:40:04,VALID,998.422,VALID,0,VALID,92.265,VALID,0,VALID,22.4136,VALID,308,VALID,0,
2010-07-15, 02:41:04,VALID,998.426,VALID,0,VALID,92.3566,VALID,0,VALID,22.3941,VALID,308,VALID,0,
2010-07-15, 02:42:04,VALID,998.416,VALID,0,VALID,92.4481,VALID,0,VALID,22.4136,VALID,308,VALID,0.157031,
2010-07-15, 02:43:04,VALID,998.423,VALID,0,VALID,92.5091,VALID,0,VALID,22.4331,VALID,308,VALID,0,
2010-07-15, 02:44:04,VALID,998.418,VALID,0,VALID,92.3031,VALID,0,VALID,22.3941,VALID,308,VALID,0.397656,
2010-07-15, 02:45:04,VALID,998.406,VALID,0,VALID,92.41,VALID,0,VALID,22.3746,VALID,308,VALID,0,
2010-07-15, 02:46:04,VALID,998.387,VALID,0,VALID,92.265,VALID,0,VALID,22.3551,VALID,308,VALID,0,
2010-07-15, 02:47:04,VALID,998.415,VALID,0,VALID,92.1658,VALID,0,VALID,22.3356,VALID,308,VALID,0,
2010-07-15, 02:48:04,VALID,998.415,VALID,0,VALID,92.204,VALID,0,VALID,22.3356,VALID,308,VALID,0,
2010-07-15, 02:49:04,VALID,998.45,VALID,0,VALID,92.1506,VALID,0,VALID,22.2966,VALID,308,VALID,0,
2010-07-15, 02:50:04,VALID,998.429,VALID,0,VALID,92.3566,VALID,0,VALID,22.2966,VALID,308,VALID,0,
2010-07-15, 02:51:04,VALID,998.436,VALID,0,VALID,92.4405,VALID,0,VALID,22.2966,VALID,308,VALID,0,
2010-07-15, 02:52:04,VALID,998.444,VALID,0,VALID,92.532,VALID,0,VALID,22.3178,VALID,308,VALID,0,
2010-07-15, 02:53:04,VALID,998.403,VALID,0,VALID,92.471,VALID,0,VALID,22.3356,VALID,308,VALID,0,
2010-07-15, 02:54:04,VALID,998.342,VALID,0,VALID,92.3184,VALID,0,VALID,22.3356,VALID,308,VALID,0,
2010-07-15, 02:55:04,VALID,998.328,VALID,0,VALID,92.1658,VALID,0,VALID,22.3161,VALID,308,VALID,0,
2010-07-15, 02:56:04,VALID,998.293,VALID,0,VALID,92.3871,VALID,0,VALID,22.3356,VALID,308,VALID,0,
2010-07-15, 02:57:04,VALID,998.284,VALID,0,VALID,92.4634,VALID,0,VALID,22.3746,VALID,22,VALID,0.821484,
2010-07-15, 02:58:04,VALID,998.235,VALID,0,VALID,92.4786,VALID,0,VALID,22.4136,VALID,22,VALID,0.901563,
2010-07-15, 02:59:04,VALID,998.217,VALID,0,VALID,92.265,VALID,0,VALID,22.4136,VALID,22,VALID,0.993359,
2010-07-15, 03:00:04,VALID,998.187,VALID,0,VALID,92.1811,VALID,0,VALID,22.4153,VALID,22,VALID,0.926172,
2010-07-15, 03:01:04,VALID,998.167,VALID,0,VALID,92.3031,VALID,0,VALID,22.4136,VALID,25,VALID,1.10039,
2010-07-15, 03:02:04,VALID,998.141,VALID,0,VALID,92.2803,VALID,0,VALID,22.4331,VALID,33,VALID,0.999219,
2010-07-15, 03:03:04,VALID,998.148,VALID,0,VALID,92.1048,VALID,0,VALID,22.4526,VALID,34,VALID,0.910547,
2010-07-15, 03:04:04,VALID,998.151,VALID,0,VALID,91.7843,VALID,0,VALID,22.4136,VALID,37,VALID,1.04102,
2010-07-15, 03:05:04,VALID,998.191,VALID,0,VALID,91.7004,VALID,0,VALID,22.3941,VALID,47,VALID,1.25234,
2010-07-15, 03:06:04,VALID,998.174,VALID,0,VALID,91.7996,VALID,0,VALID,22.3356,VALID,51,VALID,1.13906,
2010-07-15, 03:07:04,VALID,998.192,VALID,0,VALID,91.8606,VALID,0,VALID,22.3161,VALID,51,VALID,0.999609,
2010-07-15, 03:08:04,VALID,998.223,VALID,0,VALID,91.914,VALID,0,VALID,22.2576,VALID,51,VALID,0.632813,
2010-07-15, 03:09:04,VALID,998.225,VALID,0,VALID,92.0285,VALID,0,VALID,22.2576,VALID,51,VALID,0.688672,
2010-07-15, 03:10:04,VALID,998.228,VALID,0,VALID,92.1277,VALID,0,VALID,22.2186,VALID,51,VALID,0.475781,
2010-07-15, 03:11:04,VALID,998.244,VALID,0,VALID,92.2268,VALID,0,VALID,22.199,VALID,51,VALID,0.0253906,
2010-07-15, 03:12:04,VALID,998.255,VALID,0,VALID,92.2574,VALID,0,VALID,22.16,VALID,51,VALID,0,
2010-07-15, 03:13:04,VALID,998.304,VALID,0,VALID,92.3031,VALID,0,VALID,22.1405,VALID,51,VALID,0,
2010-07-15, 03:14:04,VALID,998.303,VALID,0,VALID,92.4328,VALID,0,VALID,22.1405,VALID,51,VALID,0,
2010-07-15, 03:15:04,VALID,998.309,VALID,0,VALID,92.5931,VALID,0,VALID,22.1422,VALID,51,VALID,0.240625,
2010-07-15, 03:16:04,VALID,998.324,VALID,0,VALID,92.7304,VALID,0,VALID,22.1405,VALID,51,VALID,0.435547,
2010-07-15, 03:17:04,VALID,998.336,VALID,0,VALID,92.8143,VALID,0,VALID,22.16,VALID,51,VALID,0.398047,
2010-07-15, 03:18:04,VALID,998.32,VALID,0,VALID,92.8372,VALID,0,VALID,22.16,VALID,51,VALID,0.371875,
2010-07-15, 03:19:04,VALID,998.323,VALID,0,VALID,92.8143,VALID,0,VALID,22.1405,VALID,51,VALID,0.268359,
2010-07-15, 03:20:04,VALID,998.3,VALID,0,VALID,92.8525,VALID,0,VALID,22.121,VALID,51,VALID,0.275391,
2010-07-15, 03:21:04,VALID,998.32,VALID,0,VALID,92.8754,VALID,0,VALID,22.121,VALID,51,VALID,0.391797,
2010-07-15, 03:22:04,VALID,998.3,VALID,0,VALID,92.8677,VALID,0,VALID,22.1015,VALID,51,VALID,0.445313,
2010-07-15, 03:23:04,VALID,998.279,VALID,0,VALID,92.9059,VALID,0,VALID,22.082,VALID,51,VALID,0.542578,
2010-07-15, 03:24:04,VALID,998.303,VALID,0,VALID,92.8601,VALID,0,VALID,22.0625,VALID,51,VALID,0.409766,
2010-07-15, 03:25:04,VALID,998.277,VALID,0,VALID,92.8067,VALID,0,VALID,22.043,VALID,51,VALID,0.448828,
2010-07-15, 03:26:04,VALID,998.28,VALID,0,VALID,92.8372,VALID,0,VALID,22.0447,VALID,51,VALID,0.515625,
2010-07-15, 03:27:04,VALID,998.255,VALID,0,VALID,93.028,VALID,0,VALID,22.043,VALID,56,VALID,0.560938,
2010-07-15, 03:28:04,VALID,998.277,VALID,0,VALID,93.1577,VALID,0,VALID,22.1032,VALID,58,VALID,0.643359,
2010-07-15, 03:29:04,VALID,998.284,VALID,0,VALID,93.0966,VALID,0,VALID,22.082,VALID,58,VALID,0.702734,
2010-07-15, 03:30:04,VALID,998.24,VALID,0,VALID,93.0127,VALID,0,VALID,22.082,VALID,58,VALID,0.68125,
2010-07-15, 03:31:04,VALID,998.239,VALID,0,VALID,92.9974,VALID,0,VALID,22.1032,VALID,58,VALID,0.654297,
2010-07-15, 03:32:04,VALID,998.229,VALID,0,VALID,92.9822,VALID,0,VALID,22.0625,VALID,58,VALID,0.561328,
2010-07-15, 03:33:04,VALID,998.236,VALID,0,VALID,92.944,VALID,0,VALID,22.082,VALID,58,VALID,0.505859,
2010-07-15, 03:34:04,VALID,998.215,VALID,0,VALID,92.883,VALID,0,VALID,22.082,VALID,58,VALID,0.627344,
2010-07-15, 03:35:04,VALID,998.238,VALID,0,VALID,92.8601,VALID,0,VALID,22.082,VALID,47,VALID,0.761719,
2010-07-15, 03:36:04,VALID,998.222,VALID,0,VALID,92.7838,VALID,0,VALID,22.0625,VALID,40,VALID,0.784375,
2010-07-15, 03:37:04,VALID,998.227,VALID,0,VALID,92.7151,VALID,0,VALID,22.043,VALID,40,VALID,0.743359,
2010-07-15, 03:38:04,VALID,998.212,VALID,0,VALID,92.6923,VALID,0,VALID,22.0235,VALID,40,VALID,0.603516,
2010-07-15, 03:39:04,VALID,998.236,VALID,0,VALID,92.7075,VALID,0,VALID,22.0235,VALID,40,VALID,0.316016,
2010-07-15, 03:40:04,VALID,998.261,VALID,0,VALID,92.7228,VALID,0,VALID,22.004,VALID,40,VALID,0,
2010-07-15, 03:41:04,VALID,998.255,VALID,0,VALID,92.738,VALID,0,VALID,21.965,VALID,40,VALID,0,
2010-07-15, 03:42:04,VALID,998.241,VALID,0,VALID,92.7533,VALID,0,VALID,21.965,VALID,40,VALID,0,
2010-07-15, 03:43:04,VALID,998.219,VALID,0,VALID,92.8296,VALID,0,VALID,21.965,VALID,40,VALID,0,
2010-07-15, 03:44:04,VALID,998.191,VALID,0,VALID,92.883,VALID,0,VALID,21.965,VALID,40,VALID,0,
2010-07-15, 03:45:04,VALID,998.233,VALID,0,VALID,92.9517,VALID,0,VALID,21.9862,VALID,40,VALID,0,
2010-07-15, 03:46:04,VALID,998.209,VALID,0,VALID,93.028,VALID,0,VALID,21.965,VALID,40,VALID,0,
2010-07-15, 03:47:04,VALID,998.209,VALID,0,VALID,93.0508,VALID,0,VALID,21.9862,VALID,40,VALID,0,
2010-07-15, 03:48:04,VALID,998.247,VALID,0,VALID,93.0966,VALID,0,VALID,21.965,VALID,40,VALID,0,
2010-07-15, 03:49:04,VALID,998.225,VALID,0,VALID,93.15,VALID,0,VALID,21.965,VALID,40,VALID,0,
2010-07-15, 03:50:04,VALID,998.234,VALID,0,VALID,93.1958,VALID,0,VALID,22.0057,VALID,40,VALID,0,